sat.trackr.live / text

‹ back to catalog

STARLINK-37658

NORAD 69138 · 2026-110Q

PAYLOAD ACTIVE UNKNOWN

§ Identity

Operator
Country
US
Launch date
2026-05-20
Launch site
AFWTR
Launch vehicle
Mass (kg)
RCS (m²)

Purposes: comms

External: N2YO · Heavens-Above · Gunter

§ Orbital elements

Epoch: 2026-09-20T00:28:02.288352Z

Period
93.91 min
Inclination
97.2839°
Eccentricity
0.0001065
Mean motion
15.33460482 rev/d
Perigee alt
464.8 km
Apogee alt
466.2 km
Semi-major
6,843.6 km
B*
7.1214e-4
RAAN
98.0996°
Arg perigee
73.3662°
Mean anomaly
286.7698°
Rev number
2,014

§ Raw data

STARLINK-376581 69138U 26110Q   26263.01947093  .00022997  00000+0  71214-3 0  99952 69138  97.2839  98.0996 0001065  73.3662 286.7698 15.33460482 20146

JSON: /api/v1/satellites/69138 · /tle

For live sub-satellite position, see the globe view (requires WebGL).

§ Visibility from observer

Set your observer location to see the next 7 days of passes ≥ 10°. The values pass through the URL so the page stays shareable.

No JS? Fill the form by hand. The geolocation button needs JavaScript.